Regional Weather Roundup
Issued by NWS

Home | Current Version | Previous Version | Text Only | Print | Product List | Glossary On
Versions: 1 2 3 4 5 6 7 8 9 10 11 12 13 14 15 16 17 18 19 20 21 22 23 24 25 26 27 28 29 30 31 32 33 34 35 36 37 38 39 40 41 42 43 44 45 46 47 48 49 50
000
ASUS43 KMKX 211411
RWRWI

WISCONSIN REGIONAL WEATHER ROUNDUP
NATIONAL WEATHER SERVICE MILWAUKEE/SULLIVAN WI
900 AM CDT SAT OCT 21 2017

NOTE: "FAIR" INDICATES FEW OR NO CLOUDS BELOW 12,000 FEET WITH NO
SIGNIFICANT WEATHER AND/OR OBSTRUCTIONS TO VISIBILITY.

WIZ001-002-006>008-014>016-023>028-211500-
NORTHWEST WISCONSIN

CITY           SKY/WX    TMP DP  RH WIND       PRES   REMARKS
SUPERIOR ARPT  CLOUDY    64  52  65 S17G23    29.69R
ASHLAND        MOSUNNY   64  49  57 S16G24    29.75R
HAYWARD        LGT RAIN  58  53  84 S7        29.77R
SIREN          RAIN      58  56  92 S16       29.72S
CUMBERLAND     LGT RAIN  55  54  94 SE15      29.77S
RICE LAKE      LGT RAIN  57  54  89 SE12      29.79S
CHETEK         LGT RAIN  57  55  94 SE3       29.80R
LADYSMITH      LGT RAIN  58  51  77 SE7G21    29.81F
EAU CLAIRE     CLOUDY    59  55  87 S10       29.82R
MENOMONIE      CLOUDY    58  58 100 SE13G20   29.80R
NEW RICHMOND   CLOUDY    58  56  94 SE13G18   29.74S
OSCEOLA        CLOUDY    59  59 100 SE16G25   29.73F
$$

WIZ003>005-009-010-017-018-211500-
NORTH CENTRAL WISCONSIN

CITY           SKY/WX    TMP DP  RH WIND       PRES   REMARKS
MANITOWISH WTR MOSUNNY   60  48  65 S16       29.84R
ARBOR VITAE    MOSUNNY   62  50  66 S17G25    29.87R
WOODRUFF       MOSUNNY   62  50  66 S17G25    29.87R
RHINELANDER    MOSUNNY   60  49  66 S15       29.90R
EAGLE RIVER    NOT AVBL
LAND O LAKES   SUNNY     61  47  60 S10G20    29.88S
PHILLIPS       CLOUDY    59  49  70 S20G26    29.85R
TOMAHAWK       PTSUNNY   58  48  70 S6        29.89R
MEDFORD        CLOUDY    58  49  74 SE10      29.87S
MERRILL        PTSUNNY   60  49  67 S9        29.90R
$$

WIZ029-030-035-036-043>047-211500-
CENTRAL WISCONSIN

CITY           SKY/WX    TMP DP  RH WIND       PRES   REMARKS
WAUSAU         CLOUDY    59  49  69 S9        29.89R
MOSINEE        PTSUNNY   59  50  72 S12G20    29.91S
MARSHFIELD     MOSUNNY   60  49  66 S13       29.88R
STEVENS POINT  CLOUDY    59  49  69 S7        29.91S
WAUPACA        MOSUNNY   62  51  66 S12       29.94S
WAUTOMA        MOSUNNY   62  51  67 S7        29.93F
WISC RAPIDS    MOSUNNY   63  51  65 S13       29.91R
CAMP DOUGLAS   PTSUNNY   64  52  63 S15       29.89R
$$

WIZ011>013-019>022-031-037>040-048>050-211500-
NORTHEAST WISCONSIN

CITY           SKY/WX    TMP DP  RH WIND       PRES   REMARKS
ANTIGO         CLOUDY    55  48  76 S10       29.93S
SHAWANO        PTSUNNY   63  49  62 S7        29.94R
OCONTO         PTSUNNY   59  51  73 S8        29.96R
STURGEON BAY   MOSUNNY   60  53  77 S15       29.98R
GREEN BAY      PTSUNNY   62  51  67 S9        29.97R
MANITOWOC      CLOUDY    58  52  80 S16       30.01R
APPLETON       PTSUNNY   61  46  59 S16       29.94R
CLINTONVILLE   CLOUDY    59  48  67 S9        29.94R
OSHKOSH        PTSUNNY   61  50  67 S18       29.95R
$$

WIZ032>034-041-042-053>061-211500-
SOUTHWEST WISCONSIN

CITY           SKY/WX    TMP DP  RH WIND       PRES   REMARKS
LA CROSSE      LGT RAIN  64  55  72 S15       29.86R
SPARTA         PTSUNNY   65  53  65 S18G29    29.87F
VIROQUA        CLOUDY    62  53  72 S14G21    29.90R
BOSCOBEL       CLOUDY    65  52  62 S7        29.91R
PRAIRIE DU CHI CLOUDY    65  50  60 S8        29.89R
PLATTEVILLE    SUNNY     64  53  67 S16G22    29.94S
$$

WIZ056-057-062-063-064-067-068-211500-
SOUTH CENTRAL WISCONSIN

CITY           SKY/WX    TMP DP  RH WIND       PRES   REMARKS
REEDSBURG      CLOUDY    61  51  69 S14G21    29.92S
BARABOO/DELLS  CLOUDY    61  50  67 S12       29.92S
LONE ROCK      PTSUNNY   64  53  67 S14       29.93R
MINERAL POINT  SUNNY     64  54  68 S10       29.94R
MADISON        PTSUNNY   60  50  69 S14       29.95S
MIDDLETON      MOSUNNY   62  50  66 S10G16    29.96R
WATERTOWN      CLOUDY    60  51  73 S13G21    29.99R
MONROE         PTSUNNY   59  50  72 S18       29.97R
JANESVILLE     PTSUNNY   63  50  63 S12       29.99R
$$

WIZ051-052-058>065-066-070>072-211500-
SOUTHEAST WISCONSIN

CITY           SKY/WX    TMP DP  RH WIND       PRES   REMARKS
MILWAUKEE      CLOUDY    63  49  60 S8        30.03S
WAUKESHA       SUNNY     59  46  63 S8        30.03R
MILWAUKEE/TIMM SUNNY     61  46  59 S8        30.02S
RACINE         CLOUDY    61  51  70 S8        30.04S
BURLINGTON     CLOUDY    62  51  67 S10       30.02R
KENOSHA        CLOUDY    62  48  60 S10       30.03S
FOND DU LAC    CLOUDY    65  47  52 S15G22    29.96F
SHEBOYGAN      CLOUDY    58  53  84 S10       30.00R
WEST BEND      CLOUDY    59  46  63 S6        30.00S
JUNEAU         MOSUNNY   59  50  70 S9        30.00R
$$

LSZ147-162-211500-
LAKE SUPERIOR

STATION/POSITION TIME  TEMP    WIND        PRES    WAVE
                       AIR SEA DIR/SP/G            HT/PER
                 (UTC) (F)     (DEG/KT/KT) (MB)    (FT/S)
W MID LAKE BUOY  1250   57 52              1006.8R   2/ 4
DEVILS ISLAND    1400   63     160/ 10/ 16 1006.2R
SAXON HARBOR     1340   66     190/ 10/ 23 1006.4R
$$

LMZ867-665-643>646-211500-
LAKE MICHIGAN

STATION/POSITION TIME  TEMP    WIND        PRES    WAVE
                       AIR SEA DIR/SP/G            HT/PER
                 (UTC) (F)     (DEG/KT/KT) (MB)    (FT/S)
S GREEN BAY BUOY 1330   60 58  170/ 14/ 17 1014.1F
N MID LAKE BUOY  1350   61 58  180/ 19/ 21 1015.4F   5/ 6
NORTHPORT PIER   1340   60     160/ 10/ 14 1014.9F
KEWAUNEE LAKESHO 1348   53     180/  6/  9 1015.0R
SHEBOYGAN LAKESH 1400   55     190/ 18/ 19 1016.0R
PORT WASHINGTON  1330   55     210/  4/  6 1017.3S
MILWAUKEE LAKESH 1350   56     150/ 10/ 10   N/A
S MID LAKE BUOY  1350   62 61  160/ 19/ 23 1018.0S   3/ 5
KENOSHA   LAKESH 1400   57     170/ 14/ 15 1016.6
$$

TC  - TEMPERATURE IN CELSIUS
VSB - VISIBILITY IN STATUTE MILES
WCI - WIND CHILL INDEX
HX  - HEAT INDEX





USA.gov is the U.S. government's official web portal to all federal, state and local government web resources and services.